Location: Gorze? G�rny
(49.8500°N, 19.5000°E)
Time: 03:26:59
(UTC+00:00)

ISS - Pass Details

Date: 13 May 2021
Orbit: 417 x 422 km, 51.6° (Epoch: 20 June)

Event Time Altitude Azimuth Distance (km) Brightness Sun altitude
Exits shadow 21:45:41 16° 75° (ENE) 1,212 -1.4 -20.6°
Drops below altitude 10° 21:46:25 10° 74° (ENE) 1,508 -0.9 -20.6°
Sets 21:48:31 0° 73° (ENE) 2,375 0.1 -20.7°
